Terminal Aerodrome Forecast
Issued by NWS Cheyenne, WY

Home | Current Version | Previous Version | Text Only | Print | Product List | Glossary On
Versions: 1 2 3 4 5 6 7 8 9 10 11 12 13 14 15 16 17 18 19 20 21 22 23 24 25 26 27 28 29 30 31 32 33 34 35 36 37 38 39 40 41 42 43 44 45 46 47 48 49 50
000
FTUS45 KCYS 022321
TAFCYS
TAF
KCYS 022321Z 0300/0324 16006KT P6SM SCT250
     FM030500 26012KT P6SM OVC050
     FM030800 35014G21KT 4SM -SN BR OVC010
     FM031700 02012KT 2SM -SN OVC007=

USA.gov is the U.S. government's official web portal to all federal, state and local government web resources and services.